Regional Weather Roundup
Issued by NWS

Home | Current Version | Previous Version | Text Only | Print | Product List | Glossary Off
Versions: 1 2 3 4 5 6 7 8 9 10 11 12 13 14 15 16 17 18 19 20 21 22 23 24 25 26 27 28 29 30 31 32 33 34 35 36 37 38 39 40 41 42 43 44 45 46 47 48 49 50

000
ASUS43 KDMX 190301
RWRIA

WEATHER ROUNDUP FOR IOWA
NATIONAL WEATHER SERVICE DES MOINES IA
900 PM CST SAT NOV 18 2017

NOTE: "FAIR" INDICATES FEW OR NO CLOUDS BELOW 12,000 FEET WITH NO
SIGNIFICANT WEATHER AND/OR OBSTRUCTIONS TO VISIBILITY.

* - THESE STATIONS ARE NOT NWS STATIONS...THUS NOT UNDER NWS
QUALITY CONTROL.  THEY ALSO DO NOT REPORT WEATHER SUCH
AS PRECIPITATION OR FOG.

IAZ001>003-012>014-020>022-031>034-043>046-190400-
   NORTHWEST IOWA

CITY           SKY/WX    TMP DP  RH WIND       PRES   REMARKS
CARROLL *      CLEAR     30  19  64 NW16G22   30.11S WCI  19
CHEROKEE *     CLEAR     28  18  66 NW9       30.11S WCI  20
DENISON *      CLEAR     28  19  69 NW10      30.15S WCI  19
LE MARS *      CLEAR     28  18  64 NW10      30.15R WCI  19
ORANGE CITY *  CLEAR     28  19  69 NW15G22   30.11S WCI  17
SHELDON *      CLEAR     27  16  63 NW12      30.09R WCI  16
SIOUX CITY     CLEAR     28  21  75 NW10      30.16S WCI  19
SPENCER        CLEAR     20  14  77 W10       30.09R WCI   9
STORM LAKE *   CLEAR     28  18  64 NW15      30.09S WCI  17
$$

IAZ055>058-069>071-079>083-090>094-190400-
   SOUTHWEST IOWA

CITY           SKY/WX    TMP DP  RH WIND       PRES   REMARKS
ATLANTIC *     CLEAR     32  21  64 NW12      30.15R WCI  23
AUDUBON *      CLEAR     30  21  69 W9        30.13S WCI  22
CLARINDA *     CLEAR     36  23  60 NW13G24   30.19R WCI  27
COUNCIL BLFS * CLEAR     32  23  69 NW8       30.17S WCI  25
CRESTON *      CLEAR     32  23  69 NW20G25   30.14R WCI  20
HARLAN  *      CLEAR     30  21  69 NW9       30.19R WCI  22
LAMONI         CLEAR     33  25  72 NW16      30.11R WCI  23
RED OAK *      CLEAR     34  21  60 NW8       30.18R WCI  27
SHENANDOAH *   CLEAR     34  25  69 NW7       30.20R WCI  28
$$

IAZ047>049-059>061-072>074-084-190400-
   CENTRAL IOWA

CITY           SKY/WX    TMP DP  RH WIND       PRES   REMARKS
AMES           CLEAR     30  22  72 NW9       30.08R WCI  22
ANKENY *       CLEAR     32  19  59 NW15G25   30.09R WCI  22
BOONE *        CLEAR     30  18  59 NW15      30.07R WCI  19
CHARITON *     CLEAR     34  23  64 NW18G25   30.08R WCI  23
DES MOINES     CLEAR     33  19  56 NW17G25   30.09R WCI  22
GRINNELL*      CLEAR     30  22  72 NW18      30.05R WCI  18
KNOXVILLE *    CLEAR     32  23  69 NW13      30.06R WCI  22
MARSHALLTOWN   CLEAR     29  19  66 NW24G32   30.04R WCI  15
NEWTON *       CLEAR     30  21  69 NW14G21   30.06R WCI  20
PELLA *        CLEAR     32  22  66 NW14G21   30.07R WCI  22
PERRY *          N/A     30  23  74 NW9       30.10R WCI  22
$$

IAZ004>006-015-016-023>025-035-036-190400-
   NORTH CENTRAL IOWA

CITY           SKY/WX    TMP DP  RH WIND       PRES   REMARKS
ALGONA *       CLEAR     27  19  74 NW10      30.06S WCI  17
CLARION *      CLEAR     27  19  74 NW17      30.07R WCI  14
ESTHERVILLE    CLEAR     23  15  71 NW15G22   30.07R WCI  10
FORT DODGE *   CLEAR     27  20  75 VRB6      30.09R WCI  20
MASON CITY     CLEAR     24  14  65 NW22G28   30.04R WCI   9
FOREST CITY *    N/A     27  18  69 NW16G23   30.04R WCI  14
WEBSTER CITY * CLEAR     28  19  69 NW18G24   30.06R WCI  16
IOWA FALLS *     N/A     28  20  71 NW21G28   30.05R WCI  15
$$

IAZ007>011-017>019-026>030-037>042-050>054-066-190400-
   NORTHEAST IOWA

CITY           SKY/WX    TMP DP  RH WIND       PRES   REMARKS
CEDAR RAPIDS   CLEAR     30  22  72 NW18G30   29.97R WCI  18
CHARLES CITY * CLEAR     27  18  69 NW21G32   30.00R WCI  13
CLINTON *      CLEAR     33  27  78 NW20G28   29.90R WCI  21
DECORAH *      MOCLDY    28  21  74 NW17G25   29.92R WCI  16
DUBUQUE        CLOUDY    32  23  69 NW17G29   29.89R WCI  21
MONTICELLO *   CLOUDY    32  25  74 NW21G26   29.93R WCI  20
OELWEIN *      PTCLDY    28  23  80 NW23G32   29.97R WCI  14
WATERLOO       CLEAR     27  17  66 NW21G31   30.00R WCI  13
$$

IAZ064-065-067-068-078-190400-
   EAST CENTRAL IOWA

CITY           SKY/WX    TMP DP  RH WIND       PRES   REMARKS
DAVENPORT      CLOUDY    33  26  75 NW21G28   29.93R WCI  21
IOWA CITY      CLEAR     33  23  66 NW15G26   30.00R WCI  23
MT. PLEASANT * CLEAR     32  23  69 NW18G35   30.00R WCI  20
MUSCATINE *      N/A    N/A N/A N/A MISG        N/A
QUAD CITIES    CLOUDY    35  25  66 NW20G30   29.92R WCI  24
$$

IAZ062-063-075>077-085>089-095>099-190400-
   SOUTHEAST IOWA

CITY           SKY/WX    TMP DP  RH WIND       PRES   REMARKS
BURLINGTON     MOCLDY    34  26  72 NW20G31   29.97R WCI  23
FAIRFIELD *    CLEAR     32  23  69 NW22G36   30.01R WCI  19
FORT MADISON * CLEAR     34  27  75 NW24      30.00R WCI  21
KEOKUK *       CLEAR     36  25  64 NW20G26   30.00R WCI  25
OSKALOOSA *      N/A     32  22  66 NW17G26   30.05R WCI  21
OTTUMWA        CLEAR     32  20  61 NW22G29   30.04R WCI  19
WASHINGTON *   CLEAR     32  25  74 NW20G31   30.01R WCI  20
$$

ABBREVIATIONS USED IN REMARKS
   TC - TEMPERATURES IN CELSIUS
  WCI - WIND CHILL INDEX
   HX - HEAT INDEX
  VSB - VISIBILITY
$$





USA.gov is the U.S. government's official web portal to all federal, state and local government web resources and services.